Chatham, MA

11:15 PM EST on November 22, 2017 (GMT -0500)
Chatham Municipal

Weather History for KCQX - July, 2013

Change the Weather History Date:

Wednesday, July 3, 2013

  Actual Average Record
Temperature  
Mean Temperature 74 °F -  
Max Temperature 81 °F 75 °F 89 °F (2002)
Min Temperature 69 °F 60 °F 51 °F (1985)
Cooling Degree Days 9    
Growing Degree Days 24 (Base 50)    
Moisture  
Dew Point 72 °F    
Average Humidity 93    
Maximum Humidity 100    
Minimum Humidity 82    
Precipitation  
Precipitation 0.00 in - - ()
Sea Level Pressure  
Sea Level Pressure 30.23 in    
Wind  
Wind Speed 8 mph (SW)    
Max Wind Speed 15 mph    
Max Gust Speed 24 mph    
Visibility 7 miles    
Events Fog    
Averages and records for this station are not official NWS values.
T = Trace of Precipitation, MM = Missing Value Source: NWS Daily Summary

Daily Weather History Graph

Daily Weather History Graph

Search for Another Location

Airport or City:

Trip Planner

Search our weather history database for the weather conditions in past years. The results will help you decide how hot, cold, wet, or windy it might be!

Date:

Astronomy

Jul. 03, 2013 Rise Set
Actual Time 5:10 AM EDT 8:17 PM EDT
Civil Twilight 4:36 AM EDT 8:51 PM EDT
Nautical Twilight 3:53 AM EDT 9:35 PM EDT
Astronomical Twilight 3:01 AM EDT 10:26 PM EDT
Moon 1:48 AM EDT (7/3) 4:24 PM EDT (7/3)
Length of Visible Light 16h 15m
Length of Day
15h 07m
Waning Crescent, 18% of the Moon is Illuminated
Jul 3
Waning Crescent
Jul 8
New
Jul 15
First Quarter
Jul 22
Full
Jul 29
Last Quarter

Hourly Weather History & Observations

Time (EDT) Temp. Dew Point Humidity Pressure Visibility Wind Dir Wind Speed Gust Speed Precip Events Conditions
12:52 AM 71.1 °F 70.0 °F 96% 30.21 in 9.0 mi SW 8.1 mph 16.1 mph N/A   Overcast
1:52 AM 71.1 °F 70.0 °F 96% 30.21 in 7.0 mi SW 6.9 mph - N/A   Overcast
2:07 AM 71.6 °F 69.8 °F 94% 30.20 in 6.0 mi SW 6.9 mph - N/A   Overcast
2:52 AM 71.1 °F 71.1 °F 100% 30.20 in 6.0 mi SW 8.1 mph - N/A   Overcast
3:52 AM 71.1 °F 71.1 °F 100% 30.21 in 3.0 mi SW 5.8 mph - N/A   Overcast
4:44 AM 71.6 °F 71.6 °F 100% 30.21 in 2.5 mi SW 4.6 mph - N/A   Overcast
4:52 AM 71.1 °F 71.1 °F 100% 30.22 in 3.0 mi Variable 4.6 mph - N/A   Overcast
5:39 AM 71.6 °F 71.6 °F 100% 30.23 in 1.8 mi SW 9.2 mph - N/A   Overcast
5:50 AM 71.6 °F 71.6 °F 100% 30.23 in 0.5 mi SW 8.1 mph - N/A Fog Fog
5:52 AM 71.1 °F 71.1 °F 100% 30.23 in 0.5 mi SW 5.8 mph - N/A Fog Fog
6:15 AM 71.6 °F 71.6 °F 100% 30.23 in 1.5 mi SW 8.1 mph - N/A   Overcast
6:52 AM 71.1 °F 71.1 °F 100% 30.24 in 0.5 mi SW 5.8 mph - N/A Fog Fog
7:09 AM 69.8 °F 69.8 °F 100% 30.24 in 1.0 mi SW 8.1 mph 16.1 mph N/A   Overcast
7:24 AM 71.6 °F 71.6 °F 100% 30.25 in 2.5 mi SW 5.8 mph - N/A   Overcast
7:34 AM 71.6 °F 71.6 °F 100% 30.25 in 4.0 mi SW 10.4 mph - N/A   Overcast
7:52 AM 72.0 °F 71.1 °F 97% 30.25 in 7.0 mi Variable 6.9 mph 16.1 mph N/A   Overcast
8:38 AM 75.2 °F 71.6 °F 89% 30.24 in 10.0 mi SW 8.1 mph 18.4 mph N/A   Partly Cloudy
8:52 AM 75.9 °F 71.1 °F 85% 30.25 in 10.0 mi SW 11.5 mph 19.6 mph N/A   Clear
9:36 AM 77.0 °F 71.6 °F 83% 30.24 in 10.0 mi SW 11.5 mph 21.9 mph N/A   Scattered Clouds
9:47 AM 77.0 °F 71.6 °F 83% 30.24 in 10.0 mi SW 10.4 mph 19.6 mph N/A   Mostly Cloudy
9:52 AM 77.0 °F 72.0 °F 84% 30.25 in 10.0 mi SW 8.1 mph 19.6 mph N/A   Mostly Cloudy
10:52 AM 77.0 °F 73.0 °F 88% 30.25 in 10.0 mi WSW 12.7 mph 24.2 mph N/A   Scattered Clouds
11:52 AM 75.9 °F 73.0 °F 91% 30.25 in 10.0 mi WSW 8.1 mph 19.6 mph N/A   Mostly Cloudy
12:16 PM 78.8 °F 73.4 °F 83% 30.25 in 10.0 mi SW 9.2 mph - N/A   Scattered Clouds
12:52 PM 79.0 °F 73.0 °F 82% 30.25 in 10.0 mi SSW 11.5 mph 23.0 mph N/A   Partly Cloudy
1:19 PM 78.8 °F 73.4 °F 83% 30.24 in 10.0 mi SW 11.5 mph 21.9 mph N/A   Mostly Cloudy
1:52 PM 78.1 °F 73.0 °F 84% 30.24 in 10.0 mi SW 15.0 mph 23.0 mph N/A   Mostly Cloudy
2:39 PM 78.8 °F 73.4 °F 83% 30.23 in 10.0 mi SW 10.4 mph 21.9 mph N/A   Overcast
2:52 PM 77.0 °F 73.0 °F 88% 30.23 in 10.0 mi WSW 10.4 mph 21.9 mph N/A   Overcast
3:52 PM 78.1 °F 73.0 °F 84% 30.22 in 10.0 mi SW 12.7 mph 21.9 mph N/A   Mostly Cloudy
4:19 PM 78.8 °F 73.4 °F 83% 30.21 in 10.0 mi SW 11.5 mph 20.7 mph N/A   Scattered Clouds
4:31 PM 77.0 °F 73.4 °F 89% 30.21 in 10.0 mi SW 11.5 mph 21.9 mph N/A   Mostly Cloudy
4:40 PM 77.0 °F 73.4 °F 89% 30.21 in 10.0 mi SW 10.4 mph 18.4 mph N/A   Scattered Clouds
4:52 PM 77.0 °F 73.0 °F 88% 30.21 in 10.0 mi SW 8.1 mph 17.3 mph N/A   Mostly Cloudy
5:25 PM 75.2 °F 73.4 °F 94% 30.20 in 10.0 mi SW 5.8 mph 20.7 mph N/A   Overcast
5:52 PM 75.9 °F 73.0 °F 91% 30.20 in 10.0 mi SW 9.2 mph 18.4 mph N/A   Overcast
6:52 PM 73.9 °F 73.0 °F 97% 30.20 in 10.0 mi SW 9.2 mph 20.7 mph N/A   Overcast
7:21 PM 73.4 °F 71.6 °F 94% 30.20 in 9.0 mi WSW 8.1 mph 17.3 mph N/A   Overcast
7:52 PM 73.0 °F 72.0 °F 96% 30.21 in 6.0 mi WSW 8.1 mph 24.2 mph N/A   Overcast
8:23 PM 73.4 °F 71.6 °F 94% 30.21 in 2.0 mi SW 8.1 mph - N/A   Overcast
8:36 PM 73.4 °F 71.6 °F 94% 30.22 in 4.0 mi SW 9.2 mph - N/A   Overcast
8:52 PM 73.0 °F 72.0 °F 96% 30.23 in 4.0 mi SW 5.8 mph 17.3 mph N/A   Overcast
9:52 PM 73.0 °F 73.0 °F 100% 30.25 in 5.0 mi WSW 11.5 mph 19.6 mph N/A   Overcast
10:52 PM 73.0 °F 72.0 °F 96% 30.23 in 6.0 mi SW 10.4 mph 18.4 mph N/A   Overcast
11:52 PM 73.0 °F 73.0 °F 100% 30.23 in 5.0 mi SW 9.2 mph - N/A   Overcast